Location: Maccacari
(45.1333°N, 11.1333°E)
Time: 08:08:30
(UTC+00:00)

SR - Pass Details

Date: 26 January 2021
Orbit: 573 x 882 km, 66.7° (Epoch: 04 March)

Event Time Altitude Azimuth Distance (km) Brightness Sun altitude
Exits shadow 03:54:07 32° 18° (NNE) 1,251 ? -29.5°
Drops below altitude 10° 03:57:05 10° 28° (NNE) 2,319 ? -29.0°
Sets 03:59:38 0° 32° (NNE) 3,300 ? -28.6°
